Tracking 31013 objects as of 11-Jul-2025
HD Live streaming from Space Station
objects crossing your sky now

COSMOS 768

Track COSMOS 768 now!
10-day predictions
COSMOS 768 is classified as:


NORAD ID: 8292
Int'l Code: 1975-086H
Perigee: 1,478.3 km
Apogee: 1,497.6 km
Inclination: 74.0 °
Period: 115.6 minutes
Semi major axis: 7858 km
RCS: 0.6843 m2 (medium)
Launch date: September 17, 1975
Source: Commonwealth of Independent States (former USSR) (CIS)
Launch site: PLESETSK MISSILE AND SPACE COMPLEX (PKMTR)
Your satellite tracking list
Your tracking list is empty




NASA's NSSDC Master Catalog

Two Line Element Set (TLE):
1 08292U 75086H   25191.40678991  .00000001  00000-0  11311-3 0  9990
2 08292  74.0067 205.1549 0012286  80.7003  24.9912 12.46109504265923
Source of the keplerian elements: AFSPC